Погода в Костюковичи

Погода в Костюковичи : погода сейчас, прогноз погоды и архив. Всё, что Вы хотите узнать о погоде в Костюковичи!

Поиск расширенной информации на нашем сайте:

Другие новости

Новости СМИ2

Главная страница сайта

Новости сайта

03.07.2017

Напоминаем, что на нашем специализированном сайте Метеоцентр.Азия вы можете получить высокодетализированные автоматические прогнозы погоды по пунктам России, СНГ и мира в авиационном формате (включающие направление и скорость ветра, видимость, явления погоды, количество и форму облачности, нижнюю и верхнюю границу облачности).

Рекомендуем: церетон

Погода в Костюковичи - сегодня

Время (UTC), дата Ветер
(°,м/с) 
Видим.   Явления Облачность Т
(°С)
Тd
(°С)
f(%) Тe
(°С)
Pmin
(гПа)
dP
(гПа)
Po
(мм)
O2
(г/м3)
Тmin Tmax R s Состояние
почвы
00 19.09.17 250 (З) 7-14{18}  35000 м    10/10 1080 м 
[Sc]
+12.9 +5.4 60 +12  1009.2  1.8  742  285           
03 19.09.17 240 (ЮЗ) 4{16}  35000 м    ясно 
+10.3 +6.4 77 +9  1011.4  1.9  743  288           
06 19.09.17 240 (ЮЗ) 35000 м    8/8 600 м 
[Sc]
+11.7 +7.4 75 +11  1014.2  2.9  746  287  +9.6         
09 19.09.17 230 (ЮЗ) 4{11}  35000 м    8/4 1000 м верхняя 
[Cu med, cong|Ci sp]
+14.5 +7 61 +14  1016.1  2.1  747  285           
12 19.09.17 230 (ЮЗ) 35000 м    8/8 1000 м 
[Cu Sc]
+16.4 +7 54 +17  1017.5  1.5  748  283           
15 19.09.17 270 (З) 35000 м    4/4 1000 м 
[Sc diur, vesp]
+16.6 +7 53 +17  1018.2  0.7  749  283           
18 19.09.17 тихо ()   17000 м    ясно 
+8.3 +7.4 94 +8  1020  1.1  750  292    +17.7       
21 19.09.17 тихо ()   30000 м    6/0 верхняя 
[Ci sp]
+8.4 +7.8 96 +8  1020.7  0.7  750  292           
00 20.09.17 060 (СВ) 35000 м    ясно 
+7.6 +7 96 +8  1021.1  0.3  750  293           
03 20.09.17 030 (СВ) 26000 м    4/0 верхняя 
[Ci sp]
+5.8 +5.4 97 +7  1021  -0.2  750  295           
06 20.09.17 080 (В) 30000 м    9/0 средняя 
[Ac trans]
+9.8 +8 89 +10  1021.6  0.9  751  291  +5.5         
09 20.09.17 100 (В) 35000 м    10/0 средняя 
[Ac inh]
+14 +8.4 69 +14  1021.1  -0.2  751  286           
12 20.09.17 100 (В) 35000 м    10/10 1300 м 
[Sc]
+15.6 +8 61 +15  1020.9  -0.1  751  285           
15 20.09.17 080 (В) 5{10}  35000 м    10/0 средняя 
[Ac As]
+14.1 +7.7 65 +14  1019.6  -1.3  750  286           
18 20.09.17 070 (В) 35000 м    10/10 2000 м 
[Ac inh]
+12 +8.5 79 +11  1020.3  0.5  750  288    +16.7       
21 20.09.17 080 (В) 35000 м  в посл. час ливневой дождь  9/9 2000 м средняя 
[Ac inh]
+11.4 +10 91 +11  1019.2  -1.1  749  288      0.0     
00 21.09.17 050 (СВ) 35000 м  {ливн. осадки}  6/6 2000 м средняя 
[Ac trans]
+10.6 +9.5 93 +11  1018.8  -0.5  749  289           
03 21.09.17 070 (В) 35000 м    6/6 2000 м средняя 
[Ac trans]
+11 +9.3 89 +10  1017.5  -1.2  748  288      0.0     
06 21.09.17 070 (В) 6{10}  35000 м    9/3 600 м кучево-дожд., средняя 
[Cb cap|Ac inh]
+13.4 +9.5 77 +13  1017.9  0.5  748  286  +10.5         
09 21.09.17 070 (В) 7-11{13}  35000 м  в посл. час ливневой дождь  8/4 1000 м средняя 
[Cu Sc|Ac trans]
+16.2 +9.9 66 +17  1016.1  -1.5  747  282      0.0     
12 21.09.17 090 (В) 10-14{14}  25000 м  {ливн. осадки}  8/0 средняя 
[Ac trans]
+21.1 +11.5 54 +24  1014.1  -1.6  746  277           
15 21.09.17 080 (В) 5{14}  35000 м    8/3 1000 м средняя 
[Cu Sc|Ac trans]
+20.8 +12.6 59 +26  1014.6  0.5  746  277      0.0     
18 21.09.17 080 (В) 7-11{11}  35000 м    ясно 
+18.3 +11 62 +21  1015.7  0.9  747  280    +21.5       
21 21.09.17 080 (В) 7-10{16}  35000 м    ясно 
+16.2 +10 67 +17  1017  1.1  748  283           
00 22.09.17 080 (В) 8-11{12}  35000 м    ясно 
+14.5 +8.7 68 +13  1018.2  749  285           
Время (UTC), дата Ветер
(°,м/с) 
Видим.   Явления Облачность Т
(°С)
Тd
(°С)
f(%) Тe
(°С)
Pmin
(гПа)
dP
(гПа)
Po
(мм)
O2
(г/м3)
Тmin Tmax R s Состояние
почвы

Для получения пояснительной информации подведите курсор к названию столбца.

ПОГОДА в Костюковичи - архив

Всё, что Вы хотите узнать о погоде в Костюковичи - удобно и подробно!

Выберите нужную дату (начиная с 1 января 2015* года) и нажмите кнопку "Найти".
Будут отображены архивные сводки погоды по пункту Костюковичи, начиная с указанной даты.


Отображать данные в формате CSV (для использования в таблицах Excel)


Внимание! Наш архив погоды предназначен исключительно для личного некоммерческого использования в познавательных целях. Если Вам необходимы официальные справки о состоянии погоды (для производственных, юридических, коммерческих и т.п. целей), обращайтесь в органы Росгидромета.

*Примечание: данная дата относится к архиву по метеостанциям СССР (Россия, СНГ, Балтия).
Архив по метеостанциям Зарубежной Европы и Азии (кроме Китая) хранится 10 дней, по другим регионам земного шара (Китай, Африка, Америка, Австралия, Океания) - 1 день.

Костюковичи - район местоположения метеостанции


Название, широта, долгота, высота метеостанции:
Костюковичи 53.3°ш. 32.1°д. 167 м над ур. моря [Беларусь]

Дополнительная информация

В oтличие oт бoльшинства пoгoдных сайтoв мы публикуем пoдрoбную метеoинфoрмацию в детальнoм прoфессиoнальнoм фoрмате.

Характеристики температуры и влажнoсти вoздуха измеряются на высoте 2 м в тени вдали oт зданий и деревьев.
Скoрoсть ветра измеряется на высoте 10 м (на урoвне рoста челoвека скoрoсть ветра ниже в 1.5-2 раза). Если метеoстанция нахoдится в гoрoде или в лесу, тo скoрoсть ветра занижена на 2-4 м/с пo сравнению с oткрытым местoм. Скoрoсть ветра над акватoриями крупных рек и oзёр, а также на вершинах хoлмoв на 2-5 м/с выше, чем в oбычных услoвиях.
Атмoсфернoе давление в разных тoчках местнoсти мoжет значительнo oтличаться oт давления на метеoстанции, в зависимoсти oт услoвий рельефа (при пoдъёме на 10 м давление пoнижается примернo на 1 мм рт.ст.).